Location: Tehachapi Municipal Airport
(35.1300°N, 118.4400°W)
Time: 13:06:28
(UTC-07:00)

BREEZE M DEB (TANK) - Visible Passes

Search period start: 28 May 2015 00:00
Search period end: 07 June 2015 00:00
Orbit: 285 x 12122 km, 49.5° (Epoch: 27 May)

Date Brightness Start Highest point End Pass type
(mag) Time Alt. Az. Time Alt. Az. Time Alt. Az.
28 May 8.6 03:26:07 10° WNW 04:26:28 13° W 04:36:46 10° WSW visible
28 May 8.1 22:00:10 10° NW 23:19:03 85° SW 00:14:51 36° SSE visible
29 May 8.5 02:35:41 10° NW 03:48:26 20° W 04:08:46 13° WSW visible
29 May 8.2 21:21:09 10° WNW 22:32:59 88° NE 23:38:29 32° SE visible
30 May 8.4 01:50:15 10° NW 03:09:55 27° WSW 03:32:26 19° WSW visible
30 May 8.3 20:42:21 10° WNW 21:45:56 81° NNE 23:02:13 27° SE visible
31 May 8.3 01:07:07 10° NW 02:30:51 35° WSW 02:56:12 25° SW visible
31 May 8.4 20:03:45 10° WNW 20:58:31 75° NNE 22:26:04 21° SE visible
01 Jun 8.2 00:25:21 10° NW 01:51:07 43° WSW 02:20:02 30° SW visible
01 Jun 8.5 19:25:19 10° WNW 20:11:28 71° NNE 21:49:59 15° ESE visible
01 Jun 8.2 23:44:28 10° NW 01:10:33 51° WSW 01:43:58 34° SSW visible
02 Jun 8.6 18:47:04 10° WNW 19:25:22 67° NNE 21:12:33 10° ESE visible
02 Jun 8.1 23:04:13 10° NW 00:28:59 60° WSW 01:07:58 36° SSW visible
03 Jun 8.6 18:08:58 10° WNW 18:40:30 65° N 20:29:15 10° ESE visible
03 Jun 8.1 22:24:26 10° NW 23:46:18 68° SW 00:32:02 37° S visible
04 Jun 8.1 21:45:01 10° NW 23:02:22 77° SW 23:56:10 36° SSE visible
05 Jun 8.7 02:27:42 10° WNW 03:29:11 12° W 03:39:12 10° WSW visible
05 Jun 8.2 21:05:52 10° NW 22:17:14 85° SW 23:20:21 32° SSE visible
06 Jun 8.6 01:37:49 10° NW 02:50:20 20° W 03:14:24 12° WSW visible
06 Jun 8.2 20:26:57 10° WNW 21:31:05 88° NE 22:44:36 28° SE visible
